Regional Weather Roundup
Issued by NWS Charleston, WV

Home | Current Version | Previous Version | Text Only | Print | Product List | Glossary Off
Versions: 1 2 3 4 5 6 7 8 9 10 11 12 13 14 15 16 17 18 19 20 21 22 23 24 25 26 27 28 29 30 31 32 33 34 35 36 37 38 39 40 41 42 43 44 45 46 47 48 49 50

000
ASUS41 KRLX 040110
RWRRLX
West Virginia Regional Weather Roundup
National Weather Service Charleston WV
800 PM EST TUE MAR 03 2015

Note: "fair" indicates few or no clouds below 12,000 feet with no
significant weather and/or obstructions to visibility.

WVZ003-040200-
Northern Panhandle of West Virginia

CITY           SKY/WX    TMP DP  RH WIND       PRES   REMARKS
WHEELING       LGT RAIN  49  47  93 SW15G31   29.73R
$$

WVZ009-040200-
Northwest West Virginia

CITY           SKY/WX    TMP DP  RH WIND       PRES   REMARKS
PARKERSBURG    RAIN      49  47  93 NW5       29.80R VSB 3/4
$$

WVZ006-040200-
Western West Virginia

CITY           SKY/WX    TMP DP  RH WIND       PRES   REMARKS
HUNTINGTON     CLOUDY    60  54  80 S10       29.82R
$$

WVZ015-040200-
West Central West Virginia

CITY           SKY/WX    TMP DP  RH WIND       PRES   REMARKS
CHARLESTON     MOCLDY    60  52  74 SW10      29.83R
$$

WVZ022-031-040200-
North Central West Virginia

CITY           SKY/WX    TMP DP  RH WIND       PRES   REMARKS
CLARKSBURG     CLOUDY    56  50  80 SW18G26   29.77S
MORGANTOWN     LGT RAIN  54  49  83 SW9       29.77R
$$

WVZ025-035-042-045-040200-
Southern West Virginia

CITY           SKY/WX    TMP DP  RH WIND       PRES   REMARKS
BECKLEY        CLOUDY    51  48  89 SW16G23   29.94S
LOGAN          CLOUDY    55  52  88 S9        29.86S
BLUEFIELD      CLOUDY    55  47  74 SW9       29.98S
LEWISBURG      CLOUDY    35  33  92 CALM      29.98F
$$

WVZ047-040200-
Northern Mountains of West Virginia

CITY           SKY/WX    TMP DP  RH WIND       PRES   REMARKS
ELKINS         CLOUDY    55  50  83 S14G25    29.84S
$$

WVZ052-040200-
Eastern Panhandle of West Virginia

CITY           SKY/WX    TMP DP  RH WIND       PRES   REMARKS
MARTINSBURG    CLOUDY    36  22  56 S12       29.90F
PETERSBURG     MOCLDY    44  34  68 S14G22    29.84F
$$


USA.gov is the U.S. government's official web portal to all federal, state and local government web resources and services.